Corbin, Kentucky, United States (40701)
Lat: 36.95N, Lon: 84.1W
Wx Zone: KYZ085
Local Info
Past Weather Observations for Today

NOTE: This archive is for the closest National Weather Service station to Corbin. Information may differ from the station used for current weather conditions.

Click here for Long-term Archive

Time Weather Temperature Dewpoint Humidity Pressure Winds Precip Visibility
21:53
Clear
50°F / 10°C 30°F / -1°C 47% 30.15 in
(1021 mb)
S 4.6 mph
(S 7 kph)
- 10SM
20:53
Clear
48°F / 9°C 30°F / -1°C 50% 30.15 in
(1021 mb)
Calm - 10SM
19:53
Clear
48°F / 9°C 28°F / -2°C 46% 30.18 in
(1022 mb)
Calm - 10SM
18:53
Clear
52°F / 11°C 28°F / -2°C 41% 30.18 in
(1022 mb)
SSE 4.6 mph
(SSE 7 kph)
- 10SM
17:53
Clear
54°F / 12°C 28°F / -2°C 38% 30.18 in
(1022 mb)
S 4.6 mph
(S 7 kph)
- 10SM
16:53
Overcast
57°F / 14°C 27°F / -3°C 31% 30.21 in
(1023 mb)
S 10.4 mph
(S 17 kph)
- 10SM
15:53
Clear
59°F / 15°C 27°F / -3°C 29% 30.21 in
(1023 mb)
S 9.2 mph
(S 15 kph)
- 10SM
14:53
Clear
59°F / 15°C 27°F / -3°C 29% 30.24 in
(1024 mb)
SSE 8.1 mph
(SSE 13 kph)
- 10SM
13:53
Partly Cloudy
59°F / 15°C 27°F / -3°C 29% 30.27 in
(1025 mb)
S 12.7 mph
(S 20 kph)
- 10SM
12:53
Overcast
57°F / 14°C 27°F / -3°C 31% 30.3 in
(1026 mb)
S 11.5 mph
(S 19 kph)
- 10SM
11:53
Partly Cloudy
55°F / 13°C 25°F / -4°C 31% 30.33 in
(1027 mb)
SSE 11.5 mph
(SSE 19 kph)
- 10SM
10:53
Clear
52°F / 11°C 25°F / -4°C 35% 30.36 in
(1028 mb)
S 10.4 mph
(S 17 kph)
- 10SM
09:53
Clear
46°F / 8°C 25°F / -4°C 43% 30.39 in
(1029 mb)
S 5.8 mph
(S 9 kph)
- 10SM
08:53
Clear
37°F / 3°C 21°F / -6°C 52% 30.39 in
(1029 mb)
Calm - 10SM
07:53
Clear
28°F / -2°C 19°F / -7°C 69% 30.39 in
(1029 mb)
Calm - 10SM
06:53
Mostly Cloudy
28°F / -2°C 19°F / -7°C 69% 30.39 in
(1029 mb)
SSE 3.5 mph
(SSE 6 kph)
- 10SM
05:53
Mostly Cloudy
30°F / -1°C 18°F / -8°C 59% 30.36 in
(1028 mb)
Calm - 10SM
04:53
Partly Cloudy
28°F / -2°C 19°F / -7°C 69% 30.39 in
(1029 mb)
Calm - 10SM
03:53
Clear
28°F / -2°C 18°F / -8°C 64% 30.36 in
(1028 mb)
S 5.8 mph
(S 9 kph)
- 10SM
02:53
Clear
28°F / -2°C 18°F / -8°C 64% 30.39 in
(1029 mb)
Calm - 10SM
01:53
Clear
27°F / -3°C 19°F / -7°C 74% 30.39 in
(1029 mb)
S 3.5 mph
(S 6 kph)
- 10SM
00:53
Mostly Cloudy
28°F / -2°C 18°F / -8°C 64% 30.39 in
(1029 mb)
Calm - 10SM
Time Weather Temperature Dewpoint Humidity Pressure Winds Precip Visibility


Weather for websites

WeatherForYou.com, LLC is not responsible for any damages or problems caused by this service. Current weather conditions are obtained from the closest station including government and personal stations which may have varying degrees of accuracy. Weather forecasts are derived from the NOAA NDFD. Like all things, this site belongs to Jesus Christ... He just trusts me to maintain it. If you have any questions or comments email webmaster@weatherforyou.com

Copyright © 2014, WeatherForYou.com LLC. All rights reserved.